Regional Weather Roundup
Issued by NWS Kansas City/Pleasant Hill, MO

Home | Current Version | Previous Version | Graphics & Text | Print | Product List | Glossary Off
Versions: 1 2 3 4 5 6 7 8 9 10 11 12 13 14 15 16 17 18 19 20 21 22 23 24 25 26 27 28 29 30 31 32 33 34 35 36 37 38 39 40 41 42 43 44 45 46 47 48 49 50

000
ASUS43 KEAX 051111
RWREAX

WEATHER ROUNDUP FOR EASTERN KANSAS AND NORTHWEST MISSOURI
NATIONAL WEATHER SERVICE KANSAS CITY/PLEASANT HILL MO
500 AM CST THU MAR 05 2015

KSZ040-057-103>105-MOZ028-029-037-043-051200-
...KANSAS CITY METROPOLITAN AREA...

CITY           SKY/WX    TMP DP  RH WIND       PRES   REMARKS
K.C. INTL      CLEAR      8   0  69 N9        30.50R WCI  -5
K.C. DOWNTOWN  CLEAR     14   0  53 N7        30.53R WCI   4
LEES SUMMIT    CLEAR     13   0  56 N10       30.50R WCI   0
OLATHE - IXD   CLEAR      9   1  70 N8        30.51R WCI  -3
OLATHE - OJC   CLEAR     13   1  59 N6        30.49R WCI   4
LAWRENCE       CLEAR      9   1  70 N5        30.53R WCI   1

$$

MOZ001>008-011>017-020>025-030>033-038>040-044>046-053-054-051200-
...NORTHERN AND CENTRAL MISSOURI...

CITY           SKY/WX    TMP DP  RH WIND       PRES   REMARKS
ST. JOSEPH     FAIR       5  -1  76 N5        30.54R WCI  -4
MOSBY          SUNNY     12   1  62 N7        30.54R WCI   2
WARRENSBURG    CLEAR     14   5  67 NW6       30.51R WCI   5
WHITEMAN AFB   CLEAR     14   2  60 N8        30.48R WCI   2
CLINTON        CLEAR     18   9  68 N8        30.49R WCI   7
SEDALIA        PTCLDY    16   5  62 N9        30.48R WCI   4
WARSAW         NOT AVBL
MARSHALL       CLEAR     18   7  62 N7        30.48R WCI   8
CHILLICOTHE      N/A     11   2  67 NW6       30.51R WCI   1
MOBERLY        CLEAR     16   7  67 NW7       30.45R WCI   6
KIRKSVILLE     NOT AVBL

$$

MOZ041-047>049-056>058-063>065-088>090-097-051200-
...EASTERN AND SOUTHERN MISSOURI...

CITY           SKY/WX    TMP DP  RH WIND       PRES   REMARKS
ST. LOUIS INTL CLOUDY    20   4  50 NE10      30.44R WCI   9
SPIRIT OF STL  CLOUDY    20   5  52 NE9       30.44R WCI   9
COLUMBIA       MOCLDY    17   7  64 NW9       30.44R WCI   6
JEFFERSON CITY MOCLDY    20   6  55 NW9       30.46R WCI   9
MEXICO         PTCLDY    18  14  86 N8        30.43R WCI   7
HANNIBAL       PTCLDY    12   3  67 CALM      30.45R
ROLLA          CLOUDY    19   6  57 NW8       30.37R WCI   9
OSAGE BEACH    MOCLDY    19   5  53 NW6       30.43R WCI  11
SPRINGFIELD    MOCLDY    16   8  71 NW6       30.41R WCI   7
BRANSON        CLOUDY    19  12  73 CALM      30.42R
NEVADA         CLEAR     18   9  68 N9        30.50R WCI   6
JOPLIN         CLEAR     18  10  71 W3        30.47R
WEST PLAINS    CLOUDY    20   7  57 NW7       30.38R WCI  11

$$

IAZ060-094-KSZ022-034>040-054-083-096-NEZ052-066-093-051200-
...KANSAS...SOUTHEAST NEBRASKA AND IOWA...

CITY           SKY/WX    TMP DP  RH WIND       PRES   REMARKS
TOPEKA         CLEAR     11   3  70 N5        30.54R WCI   3
MANHATTAN      CLEAR     12   4  70 CALM      30.51R
EMPORIA        CLEAR     11   3  70 N5        30.48R WCI   3
CHANUTE        CLEAR     16  10  77 N6        30.48R WCI   7
WICHITA        CLEAR     15   8  73 NE6       30.47R WCI   6
OMAHA          CLEAR      5  -2  72 CALM      30.51R
LINCOLN        CLEAR      2  -4  76 N5        30.50S WCI  -8
FALLS CITY     CLEAR      5  -3  69 NW3       30.52R
LAMONI         CLEAR      4  -4  69 NW8       30.47R WCI  -9
DES MOINES     PTCLDY     4  -7  60 N6        30.49R WCI  -7

$$



USA.gov is the U.S. government's official web portal to all federal, state and local government web resources and services.